Regional Weather Roundup
Issued by NWS

Home | Current Version | Previous Version | Text Only | Print | Product List | Glossary On
Versions: 1 2 3 4 5 6 7 8 9 10 11 12 13 14 15 16 17 18 19 20 21 22 23 24 25 26 27
000
ASUS42 KTBW 270516
RWRFL
FLORIDA REGIONAL WEATHER ROUNDUP
NATIONAL WEATHER SERVICE TAMPA BAY RUSKIN FL
100 AM EDT FRI APR 27 2018

NOTE: "FAIR" INDICATES FEW OR NO CLOUDS BELOW 12,000 FEET WITH NO
SIGNIFICANT WEATHER AND/OR OBSTRUCTIONS TO VISIBILITY.

FLZ001>010-012>015-112-114-115-270600-
PANHANDLE FLORIDA

CITY           SKY/WX    TMP DP  RH WIND       PRES   REMARKS
PENSACOLA      FAIR      60  50  69 NW8       29.90R
PENSACOLA NAS  FAIR      61  50  67 NW7       29.90R
MILTON NAS     FAIR      57  51  80 NW5       29.89
CRESTVIEW      FAIR      56  50  80 NW3       29.90S
DUKE FIELD     CLEAR     58  50  77 NW6       29.89R
VALPARAISO     PTCLDY    60  50  71 N6        29.87S
MARY ESTHER    CLEAR     60  52  74 NW5       29.88R
TRI COUNTY     FAIR      59  57  93 CALM      29.89R
PANAMA CITY    FAIR      62  59  90 NW3       29.87R
TYNDALL AFB    FAIR      65  61  87 N5        29.87S
APALACHICOLA   FAIR      65  64  97 W6        29.87S

STATION/POSITION SKY/WX   TEMP    WIND        PRES    WAVE   SWELL
                          AIR SEA DIR/SP/G            HT/PER HT/PER
                          (F)     (DEG/KT/KT) (MB)    (FT/S) (FT/S)
30.1N   87.6W              65     330/ 16/ 19 1012.7
29.2N   88.2W                 73  360/ 16/ 17 1013.0
28.8N   86.0W              71 74  300/ 14/ 16 1011.7S   3/ 4
PANAMA CITY BEAC           64 71  350/  8/ 10 1012.1R
TOWER C                    70     270/ 15/ 16 1012.0S

$$
FLZ011-016>038-118-127-128-134-139-239-270600-
NORTH FLORIDA

CITY           SKY/WX    TMP DP  RH WIND       PRES   REMARKS
MARIANNA       FAIR      63  55  75 NW8       29.87R
TALLAHASSEE    FAIR      65  60  84 W7        29.86F
PERRY          FAIR      69  64  83 S8        29.87F
LIVE OAK       PTCLDY    66  66 100 VRB5      29.88S
CROSS CITY     FAIR      64 N/A N/A S5        29.89S
LAKE CITY      FAIR      63  61  94 SW6       29.88S
GAINESVILLE    FAIR      67  61  81 SW8       29.91F
WILLISTON        N/A     63  63 100 CALM      29.90S
PALATKA        FAIR      64  64 100 SW6       29.89S
MAYPORT NAS    FAIR      70  61  73 SW10      29.86S
JACKSONVILLE   FAIR      67  60  78 SW9       29.86S
JAX NAS        FAIR      69  59  70 SW10      29.87F
JAX CECIL      FAIR      66  61  82 S8        29.87S
FERNANDINA BEA FAIR      68  59  72 SW7       29.84S
ST AUGUSTINE   FAIR      66  61  84 SW8       29.88S
PALM COAST     FAIR      62  59  88 S3        29.89S

STATION/POSITION SKY/WX   TEMP    WIND        PRES    WAVE   SWELL
                          AIR SEA DIR/SP/G            HT/PER HT/PER
                          (F)     (DEG/KT/KT) (MB)    (FT/S) (FT/S)
SHELL POINT      NOT AVBL
KEATON BEACH               71     220/ 15/ 17 1011.9F
CEDAR KEY                  71     240/  9/ 14 1012.7F
FERNANDINA                 69 71  230/  5/ 10 1011.7F
30.7N   81.3W                 69                N/A     3/ 9
MAYPORT                    70 70  240/ 11/ 15 1011.1F
31.4N   80.9W              68 66  200/ 12/ 14 1009.8F   3/ 9   2/ 9
ST AUGUSTINE               66 70  230/  6/  7 1011.8F

$$
FLZ040-043>046-052-053-057-058-063-144-270600-
INTERIOR CENTRAL FLORIDA

CITY           SKY/WX    TMP DP  RH WIND       PRES   REMARKS
OCALA          FAIR      63  61  93 SW5       29.91S
LEESBURG       FAIR      67  64  90 SW7       29.91F
SANFORD        FAIR      66  60  81 W8        29.89F
ORLANDO EXEC   FAIR      68  61  78 SW6       29.90F
ORLANDO INTL   FAIR      66  60  81 SW5       29.91F
KISSIMMEE      FAIR      65  60  84 W3        29.92F
WINTER HAVEN   FAIR      68  64  87 SW6       29.93F
BARTOW         FAIR      64  64 100 CALM      29.93F
SEBRING        FAIR      68  61  77 SW3       29.93F
OKEECHOBEE     FAIR      68  61  77 W5        29.93F

$$
FLZ041-047-054-059-064-141-147-270600-
EAST CENTRAL FLORIDA

CITY           SKY/WX    TMP DP  RH WIND       PRES   REMARKS
DAYTONA BEACH  FAIR      63  60  90 SW6       29.89F
DELAND         FAIR      66  61  82 SW3       29.89F
JFK SPACE CTR  FAIR      68  62  82 W3        29.90S
CAPE CANAVERAL FAIR      70  60  70 W7        29.89F
PATRICK AFB    FAIR      71  61  70 W9        29.91F
MELBOURNE      FAIR      69  59  70 W6        29.91F
VERO BEACH     FAIR      70  61  73 W7        29.93S
FT PIERCE      FAIR      69  62  78 CALM      29.93S
STUART         FAIR      72  61  68 W5        29.94F

STATION/POSITION SKY/WX   TEMP    WIND        PRES    WAVE   SWELL
                          AIR SEA DIR/SP/G            HT/PER HT/PER
                          (F)     (DEG/KT/KT) (MB)    (FT/S) (FT/S)
28.5N   80.2W              74 76  270/ 14/ 17 1012.6R   4/ 9   3/ 9
28.9N   78.5W              75 76  180/ 16/ 19 1013.0F   5/ 8   5/ 8
TRIDENT PIER               71 76  260/  5/  7 1014.1F
28.4N   80.5W                 75                N/A     2/ 8
27.5N   80.2W                 76                N/A     3/ 8

$$
FLZ050-056-061-142-242-148-248-149-249-151-251-155-255-
160-260-270600-
WEST CENTRAL FLORIDA

CITY           SKY/WX    TMP DP  RH WIND       PRES   REMARKS
CRYSTAL RIVER  FAIR      61  61 100 CALM      29.91S
INVERNESS      FAIR      61  61 100 CALM      29.91F
BROOKSVILLE    FAIR      62  60  93 S5        29.92F
CLEARWATER AIR FAIR      68  63  83 CALM      29.91F
ST PETE CLEARW FAIR      70  64  81 S3        29.91F
TAMPA INTL     FAIR      72  64  76 S7        29.92F
TAMPA EXEC     FAIR      61  61 100 CALM      29.92F
PLANT CITY     FAIR      68  63  83 S6        29.94F
MACDILL AFB    FAIR      71  64  79 SW5       29.91F
PETER O KNIGHT CLOUDY    72  64  78 SW6       29.92F
ST PETERSBURG  FAIR      72  66  81 SW5       29.90F
SARASOTA       FAIR      68  65  90 SE7       29.91F
VENICE         MOCLDY    73  66  78 S8        29.93F

STATION/POSITION SKY/WX   TEMP    WIND        PRES    WAVE   SWELL
                          AIR SEA DIR/SP/G            HT/PER HT/PER
                          (F)     (DEG/KT/KT) (MB)    (FT/S) (FT/S)
27.3N   84.2W                 74                N/A     1/ 4
CLEARWATER BEACH           73 77  210/ 11/ 11 1013.0F
MIDDLE TAMPA BAY           72     180/  5/  6 1013.2F
VENICE                     74 78  200/  9/ 11 1013.4F

$$
FLZ066-069-070-075>078-162-262-165-265-270600-
SOUTHWEST FLORIDA AND KEYS

CITY           SKY/WX    TMP DP  RH WIND       PRES   REMARKS
PUNTA GORDA    FAIR      69  62  78 S3        29.94F
FT MYERS       FAIR      72  65  78 CALM      29.92F
SOUTHWEST INTL FAIR      70  65  84 CALM      29.93F
NAPLES         FAIR      75  69  81 NE3       29.92F
MARCO ISLAND   FAIR      74  69  85 NW5       29.94F
IMMOKALEE      MOCLDY    68  61  77 CALM      29.94F
MARATHON       FAIR      79  73  82 S6        29.92F
KEY WEST NAS   FAIR      78  72  81 S13       29.92F
KEY WEST INTL  FAIR      79  72  79 S12       29.92F

STATION/POSITION SKY/WX   TEMP    WIND        PRES    WAVE   SWELL
                          AIR SEA DIR/SP/G            HT/PER HT/PER
                          (F)     (DEG/KT/KT) (MB)    (FT/S) (FT/S)
NAPLES                     78 82              1013.1F
26.0N   85.6W              75 79   CALM  /  2 1013.1
DRY TORTUGAS               78     140/ 10/ 10 1013.0F
SAND KEY                   77                 1013.3F
SOMBRERO KEY               77     160/ 10/ 12 1012.5F
LONG KEY                   79 83  160/ 11/ 12 1012.8F
MOLASSES REEF              78 79  100/  2/  4 1013.9F

$$
FLZ067-068-071>074-168-172>174-270600-
SOUTHEAST FLORIDA

CITY           SKY/WX    TMP DP  RH WIND       PRES   REMARKS
W PALM BEACH   FAIR      73  62  68 W7        29.94F
FT LAUDER-EXEC CLOUDY    77  67  71 SW7       29.94F
FT LAUDERDALE  MOCLDY    76  69  79 W6        29.93F
POMPANO BEACH  MOCLDY    77  67  71 W8        29.94F
PEMBROKE PINES FAIR      77  68  73 SW5       29.95F
OPA LOCKA      FAIR      76  69  79 W5        29.94F
MIAMI          MOCLDY    76  69  79 CALM      29.94F
WEST KENDALL   FAIR      74  67  78 CALM      29.93F
HOMESTEAD      FAIR      73  69  86 CALM      29.92F

STATION/POSITION SKY/WX   TEMP    WIND        PRES    WAVE   SWELL
                          AIR SEA DIR/SP/G            HT/PER HT/PER
                          (F)     (DEG/KT/KT) (MB)    (FT/S) (FT/S)
PORT EVERGLADES            77     210/  3/  6 1013.8F
VIRGINIA KEY               78 81  170/  5/  7 1013.1F
LAKE WORTH                 76 78  270/  6/  8 1014.7F
FOWEY ROCKS                78 79  170/  8/  9 1014.1F
SETTLEMENT POINT           75     260/  7/  9 1013.7F

$$





USA.gov is the U.S. government's official web portal to all federal, state and local government web resources and services.